Volver al catálogo

STARLINK-5184

ActivoComunicacionesVLEO
NORAD 54087·PAYLOAD·🇺🇸 United States

Lanzado Oct 20, 2022 desde Cape Canaveral Space Force Station

Loading…

Próximos Pases (próximas 24 horas)

TLE

ActualizadoSource: CelesTrak SupGP

Época: Sep 15, 2026, 01:58 UTC

1 54087C 22136AN  26258.08243056  .00258890  00000+0  12157-1 0  2585
2 54087  53.1608 202.5995 0001322  86.4234 347.3207 15.18983434    19

Sigue STARLINK-5184 en tiempo real con AllMySat

Download on the App Store